time,speed
2024032800,74.1
2024032801,74.2
2024032802,77.9
2024032803,71.7
2024032804,77.0
2024032805,74.4
2024032806,69.6
2024032807,67.9
2024032808,63.5
2024032809,58.7
2024032810,64.7
2024032811,50.6
2024032812,52.9
2024032813,56.2
2024032814,50.0
2024032815,52.1
2024032816,57.4
2024032817,54.7
2024032818,49.9
2024032819,59.1
2024032820,65.2
2024032821,71.5
2024032822,71.5
2024032823,72.3
2024032700,65.2
2024032701,64.2
2024032702,67.5
2024032703,59.0
2024032704,72.2
2024032705,66.7
2024032706,66.8
2024032707,66.9
2024032708,64.5
2024032709,74.4
2024032710,56.7
2024032711,50.3
2024032712,57.4
2024032713,47.9
2024032714,55.5
2024032715,60.7
2024032716,61.9
2024032717,49.9
2024032718,56.1
2024032719,56.5
2024032720,60.5
2024032721,76.2
2024032722,75.6
2024032723,76.0
2024032600,68.8
2024032601,75.8
2024032602,71.2
2024032603,72.9
2024032604,77.8
2024032605,74.8
2024032606,74.6
2024032607,87.2
2024032608,59.4
2024032609,72.1
2024032610,67.8
2024032611,68.8
2024032612,68.4
2024032613,49.7
2024032614,62.1
2024032615,42.4
2024032616,64.5
2024032617,67.6
2024032618,46.8
2024032619,47.2
2024032620,60.1
2024032621,73.7
2024032622,60.7
2024032623,74.0
2024032500,72.2
2024032501,76.2
2024032502,76.2
2024032503,62.4
2024032504,83.6
2024032505,67.9
2024032506,76.6
2024032507,82.9
2024032508,63.8
2024032509,78.5
2024032510,72.9
2024032511,44.8
2024032512,49.5
2024032513,44.1
2024032514,55.9
2024032515,49.1
2024032516,33.9
2024032517,52.1
2024032518,54.9
2024032519,65.8
2024032520,62.7
2024032521,74.8
2024032522,73.4
2024032523,79.6
2024032400,69.9
2024032401,63.6
2024032402,69.2
2024032403,54.2
2024032404,56.7
2024032405,68.3
2024032406,69.9
2024032407,73.6
2024032408,65.7
2024032409,65.1
2024032410,81.0
2024032411,82.1
2024032412,77.8
2024032413,92.2
2024032414,82.7
2024032415,79.2
2024032416,81.8
2024032417,79.4
2024032418,65.9
2024032419,83.3
2024032420,77.4
2024032421,78.9
2024032422,80.2
2024032423,84.5
2024032300,52.8
2024032301,50.6
2024032302,47.7
2024032303,47.4
2024032304,61.4
2024032305,52.3
2024032306,52.4
2024032307,57.3
2024032308,46.3
2024032309,51.9
2024032310,54.0
2024032311,83.0
2024032312,65.7
2024032313,53.6
2024032314,63.1
2024032315,47.0
2024032316,48.7
2024032317,47.4
2024032318,62.1
2024032319,49.3
2024032320,70.9
2024032321,68.4
2024032322,74.9
2024032323,70.8
2024032200,48.6
2024032201,44.4
2024032202,50.6
2024032203,68.3
2024032204,72.6
2024032205,67.4
2024032206,76.2
2024032207,76.3
2024032208,57.6
2024032209,64.9
2024032210,64.6
2024032211,55.8
2024032212,56.0
2024032213,51.0
2024032214,54.0
2024032215,56.6
2024032216,58.4
2024032217,47.8
2024032218,34.3
2024032219,40.0
2024032220,66.5
2024032221,44.3
2024032222,44.1
2024032223,46.6
2024032100,59.5
2024032101,48.3
2024032102,63.2
2024032103,65.3
2024032104,74.1
2024032105,77.4
2024032106,74.2
2024032107,83.6
2024032108,68.6
2024032109,77.5
2024032110,53.3
2024032111,66.7
2024032112,54.9
2024032113,56.0
2024032114,43.6
2024032115,47.0
2024032116,43.8
2024032117,48.3
2024032118,49.8
2024032119,45.6
2024032120,65.2
2024032121,57.3
2024032122,48.1
2024032123,44.9
2024032000,73.8
2024032001,71.6
2024032002,68.4
2024032003,56.6
2024032004,69.5
2024032005,76.4
2024032006,73.4
2024032007,79.7
2024032008,72.0
2024032009,81.8
2024032010,68.6
2024032011,51.6
2024032012,46.0
2024032013,55.6
2024032014,44.7
2024032015,40.7
2024032016,56.5
2024032017,43.3
2024032018,60.1
2024032019,42.7
2024032020,61.1
2024032021,71.2
2024032022,67.8
2024032023,65.1
2024031900,66.0
2024031901,72.3
2024031902,72.9
2024031903,61.0
2024031904,68.5
2024031905,57.2
2024031906,65.2
2024031907,74.9
2024031908,65.8
2024031909,63.5
2024031910,50.4
2024031911,42.7
2024031912,46.8
2024031913,53.0
2024031914,63.0
2024031915,66.6
2024031916,40.9
2024031917,40.0
2024031918,44.2
2024031919,77.8
2024031920,70.0
2024031921,77.1
2024031922,80.7
2024031923,81.3
2024031800,86.3
2024031801,89.4
2024031802,84.9
2024031803,72.1
2024031804,96.2
2024031805,96.0
2024031806,87.1
2024031807,95.7
2024031808,75.7
2024031809,74.1
2024031810,63.0
2024031811,45.1
2024031812,41.4
2024031813,34.9
2024031814,39.3
2024031815,51.2
2024031816,32.9
2024031817,54.1
2024031818,57.8
2024031819,53.2
2024031820,51.9
2024031821,55.2
2024031822,72.5
2024031823,57.9
2024031700,42.3
2024031701,56.2
2024031702,58.4
2024031703,45.8
2024031704,45.4
2024031705,70.9
2024031706,53.7
2024031707,51.5
2024031708,55.9
2024031709,77.2
2024031710,89.0
2024031711,61.7
2024031712,62.3
2024031713,80.4
2024031714,71.9
2024031715,84.8
2024031716,84.8
2024031717,85.2
2024031718,66.9
2024031719,85.9
2024031720,92.0
2024031721,88.2
2024031722,94.3
2024031723,95.0
2024031600,86.4
2024031601,84.6
2024031602,76.2
2024031603,56.1
2024031604,79.9
2024031605,93.2
2024031606,89.6
2024031607,92.7
2024031608,74.2
2024031609,85.5
2024031610,86.1
2024031611,74.4
2024031612,74.8
2024031613,67.2
2024031614,73.9
2024031615,62.1
2024031616,48.9
2024031617,67.2
2024031618,59.4
2024031619,57.0
2024031620,79.4
2024031621,80.8
2024031622,80.3
2024031623,88.0
2024031500,88.2
2024031501,88.1
2024031502,84.6
2024031503,76.4
2024031504,62.6
2024031505,63.7
2024031506,63.3
2024031507,59.2
2024031508,49.7
2024031509,49.5
2024031510,55.5
2024031511,52.5
2024031512,54.5
2024031513,40.1
2024031514,57.2
2024031515,52.9
2024031516,72.2
2024031517,39.6
2024031518,45.3
2024031519,45.9
2024031520,58.5
2024031521,55.9
2024031522,72.1
2024031523,85.9
2024031400,54.6
2024031401,48.0
2024031402,59.7
2024031403,49.4
2024031404,58.3
2024031405,60.0
2024031406,53.6
2024031407,40.0
2024031408,43.7
2024031409,53.9
2024031410,64.0
2024031411,62.8
2024031412,41.5
2024031413,49.1
2024031414,49.5
2024031415,53.3
2024031416,61.8
2024031417,67.4
2024031418,60.2
2024031419,74.5
2024031420,79.6
2024031421,80.1
2024031422,82.7
2024031423,85.6
2024031300,69.4
2024031301,69.3
2024031302,69.0
2024031303,62.9
2024031304,65.5
2024031305,63.4
2024031306,53.3
2024031307,59.8
2024031308,66.5
2024031309,60.9
2024031310,63.6
2024031311,63.1
2024031312,64.8
2024031313,47.8
2024031314,47.4
2024031315,47.6
2024031316,64.7
2024031317,67.4
2024031318,49.3
2024031319,63.7
2024031320,66.5
2024031321,77.1
2024031322,56.5
2024031323,75.0
2024031200,64.7
2024031201,75.9
2024031202,76.9
2024031203,68.6
2024031204,84.0
2024031205,75.6
2024031206,76.0
2024031207,79.9
2024031208,62.8
2024031209,70.4
2024031210,68.5
2024031211,44.6
2024031212,36.2
2024031213,40.5
2024031214,39.7
2024031215,52.5
2024031216,53.8
2024031217,60.1
2024031218,64.7
2024031219,44.7
2024031220,66.4
2024031221,75.0
2024031222,73.9
2024031223,70.3
2024031100,50.1
2024031101,58.8
2024031102,68.0
2024031103,54.1
2024031104,54.3
2024031105,56.0
2024031106,60.2
2024031107,51.5
2024031108,59.2
2024031109,57.8
2024031110,51.8
2024031111,55.8
2024031112,37.3
2024031113,37.1
2024031114,54.7
2024031115,60.7
2024031116,52.5
2024031117,60.7
2024031118,56.9
2024031119,70.0
2024031120,73.6
2024031121,77.2
2024031122,82.5
2024031123,82.3
2024031000,74.4
2024031001,66.4
2024031002,66.8
2024031003,60.1
2024031004,65.8
2024031005,71.9
2024031006,64.3
2024031007,68.5
2024031008,79.8
2024031009,56.6
2024031010,79.3
2024031011,68.5
2024031012,52.9
2024031013,68.6
2024031014,69.1
2024031015,46.3
2024031016,47.1
2024031017,69.8
2024031018,73.5
2024031019,77.5
2024031020,76.7
2024031021,56.9
2024031022,50.4
2024031023,64.2
2024030900,73.5
2024030901,68.2
2024030902,76.9
2024030903,77.8
2024030904,79.6
2024030905,71.6
2024030906,78.6
2024030907,90.0
2024030908,84.9
2024030909,80.7
2024030910,73.7
2024030911,74.9
2024030912,65.7
2024030913,69.3
2024030914,72.3
2024030915,65.3
2024030916,46.6
2024030917,73.7
2024030918,58.6
2024030919,75.1
2024030920,75.1
2024030921,78.1
2024030922,77.2
2024030923,81.5
2024030800,54.1
2024030801,47.1
2024030802,60.6
2024030803,68.0
2024030804,65.3
2024030805,68.0
2024030806,70.5
2024030807,79.5
2024030808,72.6
2024030809,52.7
2024030810,66.4
2024030811,68.7
2024030812,52.4
2024030813,45.8
2024030814,39.3
2024030815,55.3
2024030816,54.2
2024030817,44.6
2024030818,39.1
2024030819,41.7
2024030820,70.2
2024030821,69.4
2024030822,68.4
2024030823,79.0
2024030700,79.6
2024030701,82.4
2024030702,80.7
2024030703,89.1
2024030704,87.9
2024030705,82.5
2024030706,64.9
2024030707,92.8
2024030708,85.9
2024030709,80.7
2024030710,77.5
2024030711,70.5
2024030712,50.8
2024030713,52.3
2024030714,47.8
2024030715,49.6
2024030716,66.3
2024030717,60.4
2024030718,51.0
2024030719,65.8
2024030720,67.7
2024030721,61.8
2024030722,48.2
2024030723,49.9
2024030600,77.8
2024030601,65.2
2024030602,80.0
2024030603,81.6
2024030604,78.8
2024030605,76.9
2024030606,78.9
2024030607,88.6
2024030608,80.2
2024030609,74.9
2024030610,72.0
2024030611,62.2
2024030612,67.3
2024030613,52.0
2024030614,39.7
2024030615,66.0
2024030616,61.7
2024030617,71.1
2024030618,61.0
2024030619,58.5
2024030620,80.0
2024030621,71.2
2024030622,85.4
2024030623,87.3
2024030500,31.4
2024030501,19.8
2024030502,25.5
2024030503,27.0
2024030504,79.2
2024030505,63.8
2024030506,33.0
2024030507,49.2
2024030508,76.8
2024030509,51.0
2024030510,40.1
2024030511,40.4
2024030512,32.8
2024030513,27.8
2024030514,51.0
2024030515,8.4
2024030516,62.7
2024030517,94.1
2024030518,38.9
2024030519,48.5
2024030520,60.6
2024030521,81.6
2024030522,88.9
2024030523,88.8
2024030400,48.9
2024030401,48.6
2024030402,41.6
2024030403,49.5
2024030404,46.2
2024030405,47.6
2024030406,36.4
2024030407,44.5
2024030408,39.8
2024030409,36.2
2024030410,32.8
2024030411,33.2
2024030412,36.7
2024030413,27.4
2024030414,36.0
2024030415,38.6
2024030416,44.9
2024030417,48.4
2024030418,49.0
2024030419,39.7
2024030420,57.2
2024030421,57.4
2024030422,33.7
2024030423,25.5
2024030300,53.5
2024030301,52.3
2024030302,55.4
2024030303,51.4
2024030304,60.5
2024030305,65.9
2024030306,75.5
2024030307,77.7
2024030308,73.2
2024030309,63.1
2024030310,71.3
2024030311,69.1
2024030312,55.0
2024030313,55.6
2024030314,57.6
2024030315,61.5
2024030316,46.2
2024030317,58.5
2024030318,45.5
2024030319,31.9
2024030320,37.4
2024030321,37.7
2024030322,39.2
2024030323,43.9
2024030200,48.0
2024030201,62.3
2024030202,56.9
2024030203,58.7
2024030204,61.3
2024030205,60.4
2024030206,46.2
2024030207,73.7
2024030208,88.4
2024030209,73.9
2024030210,84.3
2024030211,70.0
2024030212,51.1
2024030213,59.9
2024030214,31.8
2024030215,58.9
2024030216,59.2
2024030217,56.8
2024030218,40.3
2024030219,53.1
2024030220,63.1
2024030221,57.7
2024030222,39.7
2024030223,57.1
2024030100,60.1
2024030101,50.6
2024030102,52.2
2024030103,47.6
2024030104,65.3
2024030105,70.7
2024030106,50.1
2024030107,43.3
2024030108,39.1
2024030109,32.1
2024030110,45.4
2024030111,45.6
2024030112,51.3
2024030113,51.9
2024030114,50.1
2024030115,43.4
2024030116,38.9
2024030117,33.4
2024030118,30.2
2024030119,43.8
2024030120,27.8
2024030121,50.6
2024030122,45.2
2024030123,71.3
2024022900,69.0
2024022901,65.5
2024022902,64.4
2024022903,64.8
2024022904,62.0
2024022905,61.1
2024022906,63.9
2024022907,68.4
2024022908,65.8
2024022909,50.5
2024022910,55.3
2024022911,37.9
2024022912,44.9
2024022913,57.9
2024022914,57.2
2024022915,38.1
2024022916,54.8
2024022917,39.3
2024022918,38.9
2024022919,65.9
2024022920,67.6
2024022921,68.1
2024022922,69.6
2024022923,66.6
2024022800,70.6
2024022801,44.7
2024022802,52.0
2024022803,67.9
2024022804,60.9
2024022805,66.2
2024022806,66.1
2024022807,66.3
2024022808,69.2
2024022809,76.0
2024022810,42.8
2024022811,39.4
2024022812,55.4
2024022813,46.6
2024022814,52.1
2024022815,51.3
2024022816,32.7
2024022817,13.0
2024022818,48.9
2024022819,48.9
2024022820,66.8
2024022821,71.7
2024022822,73.7
2024022823,75.0
